Simultaneous Nadir Overpasses (SNOs) Predictions

Prediction of SNOs near US between AQUA and NPP Satellite Orbit:

Table of predicted SNOs near US for the next 10.0 days since TLE Epoch: 8/24/2018
Index Date (AQUA) Time (AQUA) AQUA Lat,Lon Date (NPP) Time (NPP) NPP Lat,Lon Distance(km) Time Diff (sec)
1 08/26/2018 06:31:12 45.78, -65.40 08/26/2018 06:30:54 46.07, -67.23 145.18 18
2 08/26/2018 08:08:55 49.93, -88.49 08/26/2018 08:11:09 50.38, -90.78 170.83 134
3 08/26/2018 09:47:47 49.94,-113.21 08/26/2018 09:52:36 50.50,-116.10 215.29 289
4 08/28/2018 19:07:01 49.94, -92.64 08/28/2018 19:01:26 49.63, -94.36 128.17 335
5 08/28/2018 20:45:54 49.94,-117.36 08/28/2018 20:42:54 49.52,-119.68 173.50 180
6 08/31/2018 10:12:35 27.21,-125.00 08/31/2018 10:06:14 25.27,-126.05 240.48 381




NCC Satellite Simultaneous Nadir Overpasses (SNOs) Prediction Service
